TimeCDT,TemperatureF,Dew PointF,Humidity,Sea Level PressureIn,VisibilityMPH,Wind Direction,Wind SpeedMPH,Gust SpeedMPH,PrecipitationIn,Events,Conditions,WindDirDegrees,DateUTC
12:54 AM,79.0,64.9,62,29.75,10.0,NNW,9.2,-,N/A,,Scattered Clouds,340,2013-06-29 05:54:00
1:54 AM,77.0,63.0,62,29.75,10.0,NNW,4.6,-,N/A,,Scattered Clouds,340,2013-06-29 06:54:00
2:54 AM,75.9,63.0,64,29.74,10.0,NW,3.5,-,N/A,,Clear,320,2013-06-29 07:54:00
3:54 AM,72.0,64.9,78,29.73,10.0,WSW,3.5,-,N/A,,Clear,250,2013-06-29 08:54:00
4:54 AM,72.0,64.9,78,29.74,10.0,West,3.5,-,N/A,,Partly Cloudy,270,2013-06-29 09:54:00
5:54 AM,71.1,64.9,81,29.75,10.0,West,3.5,-,N/A,,Partly Cloudy,270,2013-06-29 10:54:00
6:54 AM,73.9,66.0,76,29.75,10.0,West,3.5,-,N/A,,Partly Cloudy,280,2013-06-29 11:54:00
7:54 AM,78.1,64.0,62,29.75,10.0,WNW,10.4,-,N/A,,Partly Cloudy,300,2013-06-29 12:54:00
8:54 AM,81.0,63.0,54,29.76,10.0,NW,9.2,-,N/A,,Partly Cloudy,310,2013-06-29 13:54:00
9:54 AM,82.9,64.0,53,29.75,10.0,NW,6.9,-,N/A,,Partly Cloudy,310,2013-06-29 14:54:00
10:54 AM,84.0,64.9,53,29.75,10.0,WNW,8.1,-,N/A,,Partly Cloudy,300,2013-06-29 15:54:00
11:54 AM,86.0,62.1,44,29.75,10.0,North,11.5,17.3,N/A,,Partly Cloudy,350,2013-06-29 16:54:00
12:54 PM,87.1,62.1,43,29.74,10.0,NW,9.2,-,N/A,,Scattered Clouds,320,2013-06-29 17:54:00
1:54 PM,87.1,57.9,37,29.73,10.0,NW,16.1,23.0,N/A,,Scattered Clouds,310,2013-06-29 18:54:00
2:54 PM,88.0,59.0,37,29.72,10.0,NW,11.5,21.9,N/A,,Scattered Clouds,310,2013-06-29 19:54:00
3:54 PM,88.0,59.0,37,29.71,10.0,WNW,18.4,-,N/A,,Mostly Cloudy,290,2013-06-29 20:54:00
4:54 PM,88.0,55.9,34,29.70,10.0,NNW,15.0,21.9,N/A,,Partly Cloudy,330,2013-06-29 21:54:00
5:54 PM,87.1,55.9,35,29.69,10.0,NNW,11.5,-,N/A,,Partly Cloudy,330,2013-06-29 22:54:00
6:54 PM,86.0,55.9,36,29.69,10.0,NW,11.5,-,N/A,,Scattered Clouds,310,2013-06-29 23:54:00
7:54 PM,82.9,55.9,39,29.69,10.0,NW,6.9,-,N/A,,Scattered Clouds,310,2013-06-30 00:54:00
8:54 PM,80.1,57.0,45,29.70,10.0,West,4.6,-,N/A,,Partly Cloudy,280,2013-06-30 01:54:00
9:54 PM,78.1,57.9,50,29.71,10.0,WNW,5.8,-,N/A,,Partly Cloudy,290,2013-06-30 02:54:00
10:54 PM,77.0,59.0,54,29.71,10.0,West,4.6,-,N/A,,Clear,280,2013-06-30 03:54:00
11:54 PM,75.9,59.0,56,29.72,10.0,NNW,3.5,-,N/A,,Partly Cloudy,340,2013-06-30 04:54:00